• Join FlightAware (Why Join?)
  • Login
  • US Flag 
02:58PM EST


 

Airport Tracker/Info


-or-


 

Live Flight TrackerFlight Track Log ✈ N72PV ✈ 22-Nov-2013 ✈ KPWT - KVUO

Flight Track Log - Related Links

Times and Time Zones

All times are in EST time to prevent confusion due to time zone crossing. See the N72PV flight status page for this flight to view local times or setup timezone preferences in your user account.

Time Position Orientation Groundspeed Altitude Reporting Facility
EST Latitude Longitude Course Direction KTS MPH feet Rate Location/Type
05:16PM 45.6204 -122.6565 196° South  Level Estimated
05:17PM 45.6204 -122.6565 North  Level Estimated
05:18PM 45.6204 -122.6565 197° South  Level Estimated
05:19PM 45.6204 -122.6565 North  Level Estimated
05:20PM 45.6204 -122.6565 195° South  Level Estimated
05:21PM 45.6204 -122.6565 198° South  Level Estimated
05:22PM 45.6204 -122.6565 355° North  Level Estimated
05:23PM 45.6204 -122.6565 170° South  Level Estimated
05:24PM 45.6204 -122.6565 359° North  Level Estimated
05:25PM 45.6204 -122.6565 359° North  Level Estimated
05:26PM 45.6204 -122.6565 170° South  Level Estimated
05:27PM 45.6204 -122.6565 172° South  Level Estimated
05:28PM 45.6204 -122.6565 24° Northeast  Level Estimated
05:29PM 45.6204 -122.6565 199° South  Level Estimated
05:30PM 45.6167 -122.6500 199° South  Level FlightAware Approximate
05:30PM 46.0277 -122.9490 199° South 168 193 6,000  Level FlightAware ADS-B
05:30PM 46.0484 -122.9510 356° North 170 196 6,000  Level FlightAware ADS-B
05:30PM 46.0514 -122.9510 360° North 169 194 6,000 -540 Level FlightAware ADS-B
05:30PM 46.0580 -122.9490 12° North 169 194 5,900 -240 Descending FlightAware ADS-B
05:31PM 46.0736 -122.9410 20° North 170 196 5,900  Level FlightAware ADS-B
05:31PM 46.0776 -122.9410 360° North 170 196 5,900  Level FlightAware ADS-B
05:31PM 46.0805 -122.9410 360° North 172 198 5,900  Level FlightAware ADS-B
05:31PM 46.0841 -122.9410 360° North 173 199 5,900  Level FlightAware ADS-B
05:31PM 46.0895 -122.9420 353° North 170 196 5,900  Level FlightAware ADS-B
05:31PM 46.0932 -122.9430 349° North 166 191 5,900 660 Level FlightAware ADS-B
05:31PM 46.0965 -122.9430 360° North 164 189 6,000 360 Climbing FlightAware ADS-B
05:31PM 46.1054 -122.9420 North 163 188 6,000  Level FlightAware ADS-B
05:31PM 46.1123 -122.9410 North 165 190 6,000  Level FlightAware ADS-B
05:32PM 46.1187 -122.9410 360° North 166 191 6,000  Level FlightAware ADS-B
05:32PM 46.1269 -122.9410 360° North 166 191 6,000  Level FlightAware ADS-B
05:32PM 46.1292 -122.9410 360° North 165 190 6,000  Level FlightAware ADS-B
05:32PM 46.1361 -122.9410 360° North 167 192 6,000  Level FlightAware ADS-B
05:32PM 46.1419 -122.9410 360° North 168 193 6,000  Level FlightAware ADS-B
05:32PM 46.1468 -122.9410 360° North 167 192 6,000  Level FlightAware ADS-B
05:32PM 46.1567 -122.9400 North 164 189 6,000 240 Level FlightAware ADS-B
05:33PM 46.1625 -122.9400 360° North 164 189 6,100 300 Climbing FlightAware ADS-B
05:33PM 46.1696 -122.9390 North 164 189 6,100 -300 Level FlightAware ADS-B
05:33PM 46.1794 -122.9390 360° North 167 192 6,000 -300 Descending FlightAware ADS-B
05:33PM 46.1859 -122.9390 360° North 167 192 6,000  Level FlightAware ADS-B
05:33PM 46.1975 -122.9390 360° North 167 192 6,000  Level FlightAware ADS-B
05:34PM 46.2088 -122.9390 360° North 167 192 6,000  Level FlightAware ADS-B
05:34PM 46.2114 -122.9390 360° North 167 192 6,000  Level FlightAware ADS-B
05:34PM 46.2174 -122.9390 360° North 165 190 6,000  Level FlightAware ADS-B
05:34PM 46.2238 -122.9390 360° North 165 190 6,000  Level FlightAware ADS-B
05:34PM 46.2295 -122.9380 North 166 191 6,000  Level FlightAware ADS-B
05:34PM 46.2357 -122.9380 360° North 167 192 6,000  Level FlightAware ADS-B
05:34PM 46.2380 -122.9380 360° North 167 192 6,000  Level FlightAware ADS-B
05:34PM 46.2437 -122.9380 360° North 167 192 6,000  Level FlightAware ADS-B
05:34PM 46.2461 -122.9380 360° North 166 191 6,000  Level FlightAware ADS-B
05:35PM 46.2520 -122.9380 360° North 165 190 6,000 300 Level FlightAware ADS-B
05:35PM 46.2592 -122.9380 360° North 163 188 6,100 360 Climbing FlightAware ADS-B
05:35PM 46.2643 -122.9380 360° North 163 188 6,100  Level FlightAware ADS-B
05:35PM 46.2727 -122.9380 360° North 166 191 6,100 -240 Level FlightAware ADS-B
05:35PM 46.2847 -122.9380 360° North 167 192 6,000 -240 Descending FlightAware ADS-B
05:36PM 46.2976 -122.9370 North 167 192 6,000 120 Level FlightAware ADS-B
05:36PM 46.3167 -122.9360 North 163 188 6,100  Climbing FlightAware ADS-B
05:36PM 46.3353 -122.9350 North 166 191 6,000 -180 Descending FlightAware ADS-B
05:37PM 46.3486 -122.9350 360° North 165 190 6,000  Level FlightAware ADS-B
05:37PM 46.3802 -122.9360 359° North 165 190 6,000  Level FlightAware ADS-B
05:38PM 46.3916 -122.9350 North 165 190 6,000 60 Level FlightAware ADS-B
05:39PM 46.4512 -122.9250 North 165 190 6,100 60 Climbing FlightAware ADS-B
05:39PM 46.4624 -122.9250 360° North 167 192 6,100  Level FlightAware ADS-B
05:39PM 46.4719 -122.9260 356° North 166 191 6,100  Level FlightAware ADS-B
05:39PM 46.4773 -122.9260 360° North 166 191 6,100  Level FlightAware ADS-B
05:39PM 46.4803 -122.9260 360° North 166 191 6,100  Level FlightAware ADS-B
05:40PM 46.4885 -122.9260 360° North 166 191 6,100  Level FlightAware ADS-B
05:40PM 46.4917 -122.9260 360° North 165 190 6,100  Level FlightAware ADS-B
05:40PM 46.4942 -122.9260 360° North 166 191 6,100  Level FlightAware ADS-B
05:40PM 46.5023 -122.9270 355° North 170 196 6,100  Level FlightAware ADS-B
05:40PM 46.5057 -122.9280 349° North 169 194 6,100  Level FlightAware ADS-B
05:40PM 46.5082 -122.9280 360° North 169 194 6,100  Level FlightAware ADS-B
05:40PM 46.5107 -122.9280 360° North 168 193 6,100  Level FlightAware ADS-B
05:40PM 46.5162 -122.9270 North 167 192 6,100  Level FlightAware ADS-B
05:40PM 46.5227 -122.9260 North 167 192 6,100  Level FlightAware ADS-B
05:40PM 46.5254 -122.9260 360° North 168 193 6,100  Level FlightAware ADS-B
05:41PM 46.5331 -122.9270 355° North 168 193 6,100  Level FlightAware ADS-B
05:41PM 46.5386 -122.9270 360° North 168 193 6,100  Level FlightAware ADS-B
05:41PM 46.5475 -122.9290 351° North 167 192 6,100  Level FlightAware ADS-B
05:41PM 46.5519 -122.9290 360° North 168 193 6,100  Level FlightAware ADS-B
05:41PM 46.5595 -122.9300 355° North 166 191 6,100  Level FlightAware ADS-B
05:41PM 46.5643 -122.9300 360° North 166 191 6,100  Level FlightAware ADS-B
05:41PM 46.5702 -122.9290 North 169 194 6,100 -300 Level FlightAware ADS-B
05:42PM 46.5819 -122.9270 North 170 196 6,000  Descending FlightAware ADS-B
05:42PM 46.5892 -122.9250 11° North 168 193 6,100 360 Climbing FlightAware ADS-B
05:42PM 46.5931 -122.9250 360° North 166 191 6,100  Level FlightAware ADS-B
05:42PM 46.5997 -122.9240 North 167 192 6,100 -300 Level FlightAware ADS-B
05:42PM 46.6116 -122.9230 North 170 196 6,000 -240 Descending FlightAware ADS-B
05:42PM 46.6187 -122.9210 11° North 169 194 6,000 240 Level FlightAware ADS-B
05:43PM 46.6305 -122.9190 North 167 192 6,100 180 Climbing FlightAware ADS-B
05:43PM 46.6410 -122.9170 North 167 192 6,100 -300 Level FlightAware ADS-B
05:43PM 46.6480 -122.9160 North 169 194 6,000 -420 Descending FlightAware ADS-B
05:43PM 46.6538 -122.9150 North 169 194 6,000 360 Level FlightAware ADS-B
05:43PM 46.6606 -122.9150 360° North 166 191 6,100 360 Climbing FlightAware ADS-B
05:43PM 46.6655 -122.9140 North 167 192 6,100 -420 Level FlightAware ADS-B
05:44PM 46.6730 -122.9140 360° North 169 194 6,000 -300 Descending FlightAware ADS-B
05:44PM 46.6814 -122.9120 North 169 194 6,000 180 Level FlightAware ADS-B
05:44PM 46.6929 -122.9110 North 167 192 6,100 180 Climbing FlightAware ADS-B
05:44PM 46.7014 -122.9100 North 167 192 6,100  Level FlightAware ADS-B
05:44PM 46.7076 -122.9090 North 168 193 6,100  Level FlightAware ADS-B
05:45PM 46.7203 -122.9090 360° North 169 194 6,100 -240 Level FlightAware ADS-B
05:45PM 46.7334 -122.9080 North 169 194 6,000 -180 Descending FlightAware ADS-B
05:45PM 46.7470 -122.9070 North 173 199 6,000  Level FlightAware ADS-B
05:45PM 46.7534 -122.9070 360° North 170 196 6,000  Level FlightAware ADS-B
05:46PM 46.7615 -122.9070 360° North 170 196 6,000  Level FlightAware ADS-B
05:46PM 46.7647 -122.9070 360° North 170 196 6,000  Level FlightAware ADS-B
05:46PM 46.7726 -122.9070 360° North 167 192 6,000  Level FlightAware ADS-B
05:46PM 46.7835 -122.9080 356° North 168 193 6,000  Level FlightAware ADS-B
05:46PM 46.7892 -122.9080 360° North 169 194 6,000  Level FlightAware ADS-B
05:46PM 46.7947 -122.9090 353° North 169 194 6,000  Level FlightAware ADS-B
05:46PM 46.8033 -122.9100 355° North 167 192 6,000  Level FlightAware ADS-B
05:47PM 46.8099 -122.9120 348° North 169 194 6,000  Level FlightAware ADS-B
05:47PM 46.8171 -122.9130 355° North 168 193 6,000  Level FlightAware ADS-B
05:47PM 46.8209 -122.9140 350° North 168 193 6,000  Level FlightAware ADS-B
05:47PM 46.8247 -122.9150 350° North 168 193 6,000  Level FlightAware ADS-B
05:47PM 46.8284 -122.9150 360° North 169 194 6,000  Level FlightAware ADS-B
05:47PM 46.8317 -122.9150 360° North 169 194 6,000  Level FlightAware ADS-B
05:47PM 46.8389 -122.9140 North 168 193 6,000  Level FlightAware ADS-B
05:47PM 46.8479 -122.9120 North 168 193 6,000  Level FlightAware ADS-B
05:48PM 46.8549 -122.9110 North 168 193 6,000  Level FlightAware ADS-B
05:48PM 46.8604 -122.9100 North 167 192 6,000  Level FlightAware ADS-B
05:48PM 46.8665 -122.9090 North 167 192 6,000  Level FlightAware ADS-B
05:48PM 46.8766 -122.9060 11° North 169 194 6,000  Level FlightAware ADS-B
05:48PM 46.8858 -122.9040 North 170 196 6,000  Level FlightAware ADS-B
05:48PM 46.8929 -122.9030 North 170 196 6,000  Level FlightAware ADS-B
05:49PM 46.9011 -122.9020 North 169 194 6,000  Level FlightAware ADS-B
05:49PM 46.9067 -122.9010 North 169 194 6,000  Level FlightAware ADS-B
05:49PM 46.9100 -122.9000 12° North 169 194 6,000  Level FlightAware ADS-B
05:49PM 46.9155 -122.9000 360° North 169 194 6,000  Level FlightAware ADS-B
05:49PM 46.9235 -122.8990 North 168 193 6,000  Level FlightAware ADS-B
05:49PM 46.9297 -122.8980 North 167 192 6,000  Level FlightAware ADS-B
05:49PM 46.9352 -122.8980 360° North 168 193 6,000  Level FlightAware ADS-B
05:49PM 46.9416 -122.8970 North 171 197 6,000  Level FlightAware ADS-B
05:49PM 46.9460 -122.8970 360° North 172 198 6,000  Level FlightAware ADS-B
05:50PM 46.9523 -122.8980 354° North 171 197 6,000  Level FlightAware ADS-B
05:50PM 46.9590 -122.8980 360° North 172 198 6,000 -420 Level FlightAware ADS-B
05:50PM 46.9639 -122.8990 352° North 172 198 5,900 -360 Descending FlightAware ADS-B
05:50PM 46.9729 -122.9010 351° North 170 196 5,900  Level FlightAware ADS-B
05:50PM 46.9785 -122.9020 353° North 171 197 5,900  Level FlightAware ADS-B
05:50PM 46.9866 -122.9040 350° North 171 197 5,900  Level FlightAware ADS-B
05:51PM 46.9934 -122.9050 354° North 170 196 5,900 300 Level FlightAware ADS-B
05:51PM 47.0008 -122.9070 350° North 168 193 6,000 300 Climbing FlightAware ADS-B
05:51PM 47.0078 -122.9090 349° North 168 193 6,000 -360 Level FlightAware ADS-B
05:51PM 47.0146 -122.9100 354° North 169 194 5,900 -420 Descending FlightAware ADS-B
05:51PM 47.0205 -122.9110 353° North 168 193 5,900  Level FlightAware ADS-B
05:51PM 47.0269 -122.9120 354° North 168 193 5,900 360 Level FlightAware ADS-B
05:51PM 47.0332 -122.9120 360° North 168 193 6,000  Climbing FlightAware ADS-B
05:51PM 47.0375 -122.9120 360° North 169 194 5,900 -480 Descending FlightAware ADS-B
05:52PM 47.0432 -122.9120 360° North 169 194 5,900  Level FlightAware ADS-B
05:52PM 47.0484 -122.9120 360° North 168 193 5,900 420 Level FlightAware ADS-B
05:52PM 47.0544 -122.9120 360° North 167 192 6,000 360 Climbing FlightAware ADS-B
05:52PM 47.0605 -122.9130 354° North 167 192 6,000  Level FlightAware ADS-B
05:52PM 47.0724 -122.9140 357° North 167 192 6,000  Level FlightAware ADS-B
05:52PM 47.0779 -122.9150 353° North 168 193 6,000  Level FlightAware ADS-B
05:52PM 47.0834 -122.9160 353° North 169 194 6,000  Level FlightAware ADS-B
05:53PM 47.0913 -122.9160 360° North 167 192 6,000  Level FlightAware ADS-B
05:53PM 47.0989 -122.9170 355° North 166 191 6,000  Level FlightAware ADS-B
05:53PM 47.1048 -122.9170 360° North 167 192 6,000  Level FlightAware ADS-B
05:53PM 47.1097 -122.9180 352° North 169 194 6,000 -300 Level FlightAware ADS-B
05:53PM 47.1214 -122.9200 353° North 169 194 5,900  Descending FlightAware ADS-B
05:53PM 47.1282 -122.9210 354° North 168 193 6,000  Climbing FlightAware ADS-B
05:54PM 47.1330 -122.9220 352° North 169 194 5,900 -480 Descending FlightAware ADS-B
05:54PM 47.1387 -122.9220 360° North 170 196 5,900  Level FlightAware ADS-B
05:54PM 47.1443 -122.9230 353° North 172 198 5,900  Level FlightAware ADS-B
05:54PM 47.1504 -122.9230 360° North 173 199 5,900  Level FlightAware ADS-B
05:54PM 47.1594 -122.9230 360° North 170 196 5,900  Level FlightAware ADS-B
05:54PM 47.1618 -122.9230 360° North 170 196 5,900 -360 Level FlightAware ADS-B
05:54PM 47.1731 -122.9220 North 171 197 5,800 -240 Descending FlightAware ADS-B
05:55PM 47.1849 -122.9230 357° North 171 197 5,800 -540 Level FlightAware ADS-B
05:55PM 47.1921 -122.9240 355° North 178 205 5,600 -1,020 Descending FlightAware ADS-B
05:55PM 47.2000 -122.9240 360° North 181 208 5,500 -360 Descending FlightAware ADS-B
05:55PM 47.2085 -122.9250 355° North 179 206 5,500 -300 Level FlightAware ADS-B
05:55PM 47.2162 -122.9270 350° North 181 208 5,400 -900 Descending FlightAware ADS-B
05:55PM 47.2247 -122.9290 351° North 185 213 5,200 -1,200 Descending FlightAware ADS-B
05:55PM 47.2288 -122.9300 351° North 185 213 5,100 -1,020 Descending FlightAware ADS-B
05:56PM 47.2350 -122.9310 354° North 185 213 5,000 -600 Descending FlightAware ADS-B
05:56PM 47.2468 -122.9330 353° North 187 215 4,900 -660 Descending FlightAware ADS-B
05:56PM 47.2592 -122.9340 357° North 186 214 4,700 -840 Descending FlightAware ADS-B
05:56PM 47.2664 -122.9350 355° North 187 215 4,600 -1,020 Descending FlightAware ADS-B
05:56PM 47.2690 -122.9350 360° North 188 216 4,500 -1,020 Descending FlightAware ADS-B
05:56PM 47.2723 -122.9350 360° North 188 216 4,500 -780 Level FlightAware ADS-B
05:56PM 47.2765 -122.9340 North 189 217 4,400 -1,380 Descending FlightAware ADS-B
05:56PM 47.2799 -122.9320 22° Northeast 187 215 4,300 -600 Descending FlightAware ADS-B
05:57PM 47.2850 -122.9300 15° North 184 212 4,300 -720 Level FlightAware ADS-B
05:57PM 47.2930 -122.9250 23° Northeast 185 213 4,100 -1,200 Descending FlightAware ADS-B
05:57PM 47.3009 -122.9200 23° Northeast 187 215 3,900 -960 Descending FlightAware ADS-B
05:57PM 47.3079 -122.9140 30° Northeast 186 214 3,800 -900 Descending FlightAware ADS-B
05:57PM 47.3166 -122.9080 25° Northeast 186 214 3,600 -720 Descending FlightAware ADS-B
05:57PM 47.3220 -122.9040 27° Northeast 184 212 3,600 -480 Level FlightAware ADS-B
05:57PM 47.3267 -122.9010 23° Northeast 183 211 3,500 -840 Descending FlightAware ADS-B
05:58PM 47.3331 -122.8970 23° Northeast 183 211 3,400 -720 Descending FlightAware ADS-B
05:58PM 47.3404 -122.8920 25° Northeast 178 205 3,300 -660 Descending FlightAware ADS-B
05:58PM 47.3480 -122.8870 24° Northeast 176 203 3,200 -480 Descending FlightAware ADS-B
05:58PM 47.3595 -122.8800 22° Northeast 174 200 3,100 -720 Descending FlightAware ADS-B
05:58PM 47.3666 -122.8750 25° Northeast 172 198 2,900 -1,320 Descending FlightAware ADS-B
05:58PM 47.3699 -122.8720 32° Northeast 172 198 2,800 -1,140 Descending FlightAware ADS-B
05:59PM 47.3744 -122.8680 31° Northeast 172 198 2,700 -1,080 Descending FlightAware ADS-B
05:59PM 47.3810 -122.8620 32° Northeast 172 198 2,500 -960 Descending FlightAware ADS-B
05:59PM 47.3874 -122.8570 28° Northeast 172 198 2,400 -960 Descending FlightAware ADS-B
05:59PM 47.3984 -122.8480 29° Northeast 168 193 2,100 -1,080 Descending FlightAware ADS-B
05:59PM 47.4073 -122.8410 28° Northeast 164 189 1,900 -900 Descending FlightAware ADS-B
05:59PM 47.4124 -122.8370 28° Northeast 161 185 1,800 -720 Descending FlightAware ADS-B
06:00PM 47.4185 -122.8320 29° Northeast 156 180 1,700 -480 Descending FlightAware ADS-B
06:00PM 47.4207 -122.8300 32° Northeast 153 176 1,700  Level FlightAware ADS-B
06:00PM 47.4224 -122.8280 39° Northeast 150 173 1,700  Level FlightAware ADS-B
06:00PM 47.4242 -122.8260 37° Northeast 147 169 1,700 -540 Level FlightAware ADS-B
06:00PM 47.4278 -122.8190 53° Northeast 143 165 1,600 -360 Descending FlightAware ADS-B
06:00PM 47.4310 -122.8130 52° Northeast 136 157 1,600  Level FlightAware ADS-B
06:00PM 47.4334 -122.8080 55° Northeast 132 152 1,600  Level FlightAware ADS-B
06:00PM 47.4344 -122.8060 54° Northeast 131 151 1,600  Level FlightAware ADS-B
06:00PM 47.4364 -122.8010 59° Northeast 128 147 1,600  Level FlightAware ADS-B
06:01PM 47.4394 -122.7920 64° Northeast 127 146 1,600 -300 Level FlightAware ADS-B
06:01PM 47.4424 -122.7830 64° Northeast 127 146 1,500 -360 Descending FlightAware ADS-B
06:01PM 47.4443 -122.7770 65° Northeast 125 144 1,500  Level FlightAware ADS-B
06:01PM 47.4473 -122.7660 68° East 122 140 1,500  Level FlightAware ADS-B
06:01PM 47.4485 -122.7620 66° East 123 142 1,500  Level FlightAware ADS-B
06:01PM 47.4503 -122.7570 62° Northeast 112 129 1,500 -420 Level FlightAware ADS-B
06:01PM 47.4526 -122.7520 56° Northeast 105 121 1,400 -480 Descending FlightAware ADS-B
06:02PM 47.4535 -122.7500 56° Northeast 105 121 1,400 -720 Level FlightAware ADS-B
06:02PM 47.4552 -122.7470 50° Northeast 102 117 1,300 -780 Descending FlightAware ADS-B
06:02PM 47.4563 -122.7450 51° Northeast 99 114 1,300  Level FlightAware ADS-B
06:02PM 47.4578 -122.7440 24° Northeast 97 112 1,300  Level FlightAware ADS-B
06:02PM 47.4592 -122.7440 360° North 98 113 1,300  Level FlightAware ADS-B
06:02PM 47.4607 -122.7440 360° North 101 116 1,300  Level FlightAware ADS-B
06:02PM 47.4622 -122.7460 318° Northwest 104 120 1,300  Level FlightAware ADS-B
06:02PM 47.4632 -122.7470 326° Northwest 108 124 1,300 -1,020 Level FlightAware ADS-B
06:02PM 47.4640 -122.7500 292° West 112 129 1,200 -900 Descending FlightAware ADS-B
06:02PM 47.4642 -122.7520 278° West 115 132 1,200 -900 Level FlightAware ADS-B
06:02PM 47.4641 -122.7550 267° West 120 138 1,100 -1,020 Descending FlightAware ADS-B
06:02PM 47.4636 -122.7570 250° West 121 139 1,100  Level FlightAware ADS-B
06:02PM 47.4629 -122.7590 243° Southwest 120 138 1,100  Level FlightAware ADS-B
06:02PM 47.4619 -122.7620 244° Southwest 120 138 1,100  Level FlightAware ADS-B
06:02PM 47.4607 -122.7630 209° Southwest 120 138 1,100 -540 Level FlightAware ADS-B
06:02PM 47.4576 -122.7690 233° Southwest 118 136 1,000 -540 Descending FlightAware ADS-B
06:03PM 47.4565 -122.7710 231° Southwest 117 135 1,000  Level FlightAware ADS-B
06:03PM 47.4555 -122.7730 234° Southwest 118 136 1,000 -1,020 Level FlightAware ADS-B
06:03PM 47.4548 -122.7750 243° Southwest 117 135 900 -900 Descending FlightAware ADS-B
06:03PM 47.4543 -122.7780 256° West 116 133 900 -900 Level FlightAware ADS-B
06:03PM 47.4542 -122.7800 266° West 112 129 800 -780 Descending FlightAware ADS-B
06:03PM 47.4547 -122.7830 284° West 105 121 800  Level FlightAware ADS-B
06:03PM 47.4554 -122.7850 297° West 99 114 800  Level FlightAware ADS-B
06:03PM 47.4565 -122.7870 309° West 93 107 800  Level FlightAware ADS-B
06:03PM 47.4574 -122.7880 323° Northwest 90 104 800 -1,020 Level FlightAware ADS-B
06:03PM 47.4586 -122.7890 331° Northwest 86 99 700 -900 Descending FlightAware ADS-B
06:03PM 47.4600 -122.7900 334° Northwest 83 96 700  Level FlightAware ADS-B
06:03PM 47.4612 -122.7900 360° North 78 90 700  Level FlightAware ADS-B
06:03PM 47.4623 -122.7890 32° Northeast 77 89 700 -900 Level FlightAware ADS-B
06:03PM 47.4634 -122.7890 360° North 76 87 600 -900 Descending FlightAware ADS-B
06:03PM 47.4645 -122.7880 32° Northeast 76 87 600 -540 Level FlightAware ADS-B
06:03PM 47.4673 -122.7860 26° Northeast 75 86 500 -840 Descending FlightAware ADS-B
06:04PM 47.4690 -122.7850 22° Northeast 73 84 400 -600 Descending FlightAware ADS-B
06:04PM 47.4702 -122.7840 29° Northeast 74 85 400 -600 Level FlightAware ADS-B
06:04PM 47.4724 -122.7820 32° Northeast 74 85 300 -540 Descending FlightAware ADS-B
06:04PM 47.4736 -122.7810 29° Northeast 74 85 300 -600 Level FlightAware ADS-B
06:04PM 47.4754 -122.7790 37° Northeast 74 85 200 -540 Descending FlightAware ADS-B
06:04PM 47.4771 -122.7770 38° Northeast 75 86 200 -600 Level FlightAware ADS-B
06:04PM 47.4788 -122.7760 22° Northeast 75 86 100 -1,200 Descending FlightAware ADS-B
06:07PM 47.2180 -122.7587 102° East  Level Estimated
06:08PM 47.1093 -122.7516 198° South  Level Estimated
06:09PM 47.1295 -122.5945 79° East  Level FlightAware Approximate
06:10PM 47.1495 -122.4373 79° East  Level FlightAware Approximate
06:11PM 47.0640 -122.4689 196° South  Level FlightAware Approximate
06:12PM 46.9593 -122.5120 196° South  Level FlightAware Approximate
06:13PM 46.8546 -122.5554 197° South  Level FlightAware Approximate
06:14PM 46.7505 -122.6016 197° South  Level FlightAware Approximate
06:15PM 46.6459 -122.6450 195° South  Level FlightAware Approximate
06:16PM 46.5421 -122.6922 198° South  Level FlightAware Approximate
06:17PM 46.4384 -122.7400 198° South  Level FlightAware Approximate
06:18PM 46.3319 -122.7287 170° South  Level FlightAware Approximate
06:19PM 46.2247 -122.7019 170° South  Level FlightAware Approximate
06:20PM 46.1175 -122.6752 170° South  Level FlightAware Approximate
06:21PM 46.0115 -122.6445 170° South  Level FlightAware Approximate
06:22PM 45.9043 -122.6177 170° South  Level FlightAware Approximate